GEFSSE_500_meanwind_006.txt.gz
Wind_Speed
17 18 18 18 19 20 19 19 18 16 16 17 16 16 15 15 15 17 17 17 18 19 19 18 17 17 16 15 14 13 12 11 11 10 10 11 10 10 10 9 7 3 2
16 16 16 17 17 17 17 15 14 13 13 14 14 14 14 15 15 15 15 16 17 17 17 17 17 16 15 14 14 13 12 12 12 12 11 11 11 11 10 9 7 6 2
14 14 14 14 14 14 13 12 11 11 11 12 13 12 12 12 12 13 13 14 15 16 16 15 15 14 14 13 13 12 12 11 10 10 10 10 11 11 11 10 7 5 3
11 12 12 11 12 12 11 11 11 11 11 11 11 9 8 9 9 9 10 12 13 14 15 15 14 13 12 12 12 11 11 10 9 8 8 9 8 9 10 10 9 6 3
8 9 9 10 10 10 10 10 10 10 10 10 9 7 7 8 10 9 9 11 13 14 15 15 14 13 11 11 11 11 10 8 7 7 8 8 7 7 8 9 9 8 5
5 5 6 7 7 8 8 8 8 8 8 8 8 7 8 11 12 12 11 12 14 15 16 16 15 13 11 11 11 10 10 8 7 6 6 7 7 7 9 10 10 9 8
1 1 2 3 4 4 5 6 6 7 7 7 8 9 11 12 14 15 14 14 16 17 18 18 17 15 13 11 11 10 10 9 7 6 6 6 8 9 9 10 10 10 9
6 5 4 3 1 0 1 3 4 5 6 7 8 9 10 11 13 14 15 15 17 18 19 19 19 17 16 13 12 10 9 10 9 7 7 8 8 9 9 10 10 9 8
9 9 8 6 5 4 3 3 4 3 3 5 7 8 8 8 9 10 11 13 14 15 17 18 19 18 17 16 14 12 11 10 10 9 9 10 10 9 9 11 12 12 11
10 10 10 9 8 7 6 6 6 4 3 5 7 9 10 10 10 12 13 14 14 14 16 17 18 19 18 17 15 14 12 11 10 10 9 10 11 11 11 13 13 13 12
11 11 11 12 11 9 8 8 8 8 8 9 11 12 14 15 13 13 15 15 15 16 18 18 17 17 18 17 16 15 14 12 11 11 10 11 12 13 14 15 15 14 13
12 12 12 12 11 10 10 10 12 13 14 15 16 16 16 16 14 15 16 18 20 20 20 20 19 17 16 17 19 17 15 14 12 12 12 13 15 15 16 18 17 15 14
12 12 12 13 13 14 14 15 16 17 18 18 18 17 15 13 14 17 19 20 22 23 23 22 22 21 17 16 18 18 17 15 14 14 14 15 17 17 18 19 18 16 15
12 11 12 13 13 13 15 16 17 18 18 18 17 15 14 13 15 18 22 23 25 27 27 26 25 24 21 18 18 18 17 17 16 16 15 15 17 19 19 19 18 17 16
14 14 15 15 14 14 15 15 16 17 16 15 16 15 15 15 17 20 23 26 28 29 29 28 27 24 22 20 19 18 18 19 19 18 17 16 18 20 21 20 19 18 16
21 21 20 19 19 19 20 20 20 19 17 17 16 16 16 16 18 21 24 27 29 29 28 26 25 24 22 21 20 20 20 21 22 20 19 19 19 20 21 21 19 17 15
26 25 25 23 23 23 23 24 25 24 23 22 20 19 20 21 22 24 26 28 31 31 29 27 26 25 22 21 22 22 22 22 23 22 22 22 21 21 22 23 21 17 15
29 29 29 28 27 26 27 27 28 29 29 27 26 25 25 27 28 29 30 32 34 35 33 31 29 27 24 22 23 24 24 25 25 25 26 26 24 24 24 25 24 21 18
35 33 32 31 30 30 31 32 32 32 32 32 31 31 30 30 32 34 36 36 38 37 35 33 32 30 28 26 25 24 25 26 26 27 29 29 27 27 27 26 25 23 22
36 34 34 35 35 35 36 36 37 37 37 36 36 36 35 34 35 38 40 41 41 40 37 35 34 32 30 29 26 25 26 26 27 27 28 29 30 30 29 27 26 25 23
31 34 37 40 41 40 40 40 40 40 41 41 41 40 39 38 40 42 44 45 45 43 40 37 35 33 31 30 28 27 27 27 28 29 29 31 32 31 31 28 27 26 23
39 41 44 46 46 44 44 43 42 42 43 45 46 44 43 43 44 45 46 48 48 47 43 41 38 36 35 33 31 31 31 31 31 32 33 33 32 31 30 29 29 27 25
42 43 44 46 47 47 46 45 44 43 44 46 47 46 46 46 46 47 47 47 47 47 47 46 44 41 40 38 35 33 33 34 34 34 35 34 32 31 30 29 30 30 27
38 39 41 44 46 47 47 46 45 45 45 46 45 45 45 46 48 48 47 46 46 47 48 49 48 46 44 41 39 36 35 35 36 35 36 34 32 32 33 33 32 31 29
36 37 39 40 42 43 44 44 43 42 42 42 42 43 44 46 46 46 46 46 47 47 48 49 49 47 44 42 40 38 36 36 36 35 35 34 33 33 35 35 34 32 29
40 40 41 39 39 40 41 41 41 41 41 41 41 42 43 44 45 46 47 47 47 46 47 48 47 44 41 38 37 35 34 35 35 35 35 34 34 33 30 30 31 32 30

GEFSSE_500_meanwind_012.txt.gz
Wind_Speed
20 20 19 20 19 19 19 18 18 17 16 16 16 15 15 16 17 18 19 20 20 19 18 17 15 15 14 13 12 11 10 10 10 9 9 8 7 6 4 3 3 5 6
17 18 16 16 15 15 16 16 15 14 14 14 14 14 14 14 15 17 18 19 19 19 19 17 15 14 13 12 11 9 8 8 8 8 8 7 7 6 5 3 2 2 4
13 13 13 13 12 13 14 15 14 13 13 13 13 12 12 12 13 13 15 16 17 17 17 17 15 13 11 10 9 8 7 6 6 6 6 6 6 7 6 5 3 2 2
9 9 9 10 10 11 12 13 13 12 11 11 10 10 10 10 10 10 11 12 13 14 15 15 14 12 10 9 8 6 5 5 5 5 5 5 6 7 8 7 5 3 3
6 5 6 7 8 9 10 11 11 10 9 8 8 7 8 8 8 9 9 9 11 12 13 13 12 11 10 9 7 6 5 4 4 4 4 5 6 7 8 8 7 5 4
5 3 3 4 5 5 6 7 7 7 7 6 6 7 7 7 8 8 8 9 10 11 12 12 12 11 10 9 7 6 4 3 4 4 4 4 5 6 5 6 6 6 5
4 3 2 1 1 1 1 2 3 4 4 4 5 5 6 6 7 7 8 8 10 11 12 13 14 13 11 9 7 6 5 4 5 6 5 4 4 5 5 5 6 6 5
5 5 5 4 3 4 4 3 2 1 1 2 2 3 4 5 7 9 9 10 11 12 13 14 16 16 15 11 8 6 5 5 6 7 7 5 3 4 5 6 6 7 7
7 6 6 6 7 8 8 7 6 5 4 3 3 4 5 7 10 11 11 10 10 12 13 15 17 18 18 15 12 8 6 6 7 8 9 8 5 5 6 7 7 8 9
9 7 7 7 8 9 10 10 9 7 7 7 8 9 11 12 12 12 11 10 10 12 14 17 18 19 19 18 15 11 9 8 8 9 10 10 9 8 8 9 10 10 11
10 10 9 8 9 9 11 11 10 10 10 12 14 15 16 16 15 13 11 10 9 11 15 17 19 20 20 19 17 14 12 11 10 10 10 11 11 11 11 12 12 12 12
10 11 11 10 10 11 12 13 14 14 15 16 17 18 17 16 15 12 10 10 10 12 14 17 18 19 20 20 18 16 14 13 12 12 12 13 13 14 14 14 14 14 13
11 11 11 11 13 14 15 16 16 17 18 18 17 17 16 15 13 11 10 11 11 12 14 17 18 19 20 20 19 17 16 15 14 14 14 14 15 16 16 16 16 15 14
12 12 12 13 14 15 16 17 17 17 17 16 15 14 14 14 13 12 12 11 12 13 15 17 19 20 21 21 21 19 16 17 17 17 17 16 16 17 18 18 18 17 15
16 16 17 18 19 20 20 20 21 20 19 18 16 15 14 14 14 14 13 13 14 15 17 19 20 21 23 23 23 21 18 17 18 19 20 19 18 17 18 19 19 19 17
19 21 22 23 24 25 25 25 25 25 23 21 19 18 18 18 18 17 16 16 17 18 20 21 23 23 24 24 24 23 21 19 19 20 21 22 21 19 19 20 20 20 20
22 23 24 25 27 28 29 30 30 29 28 26 24 22 21 21 21 21 21 20 21 22 23 24 25 25 26 26 26 25 25 23 22 22 22 23 23 22 22 22 22 22 22
25 26 27 28 29 31 33 34 34 34 32 31 29 28 26 25 25 24 24 24 24 25 26 27 27 27 28 28 28 28 27 26 25 24 24 24 25 25 25 25 26 25 24
27 28 30 31 33 35 37 38 39 39 38 37 36 34 33 31 29 28 27 28 28 28 29 30 30 31 31 32 31 30 30 29 28 26 25 26 27 28 27 27 27 27 26
30 31 33 34 36 38 40 41 43 43 43 43 41 39 38 36 34 32 31 32 32 33 34 35 36 37 36 36 35 33 32 32 31 29 29 29 29 30 30 29 28 28 28
35 35 36 38 39 41 43 44 45 46 46 44 43 42 41 40 39 37 35 35 35 36 37 39 40 41 40 41 40 37 34 34 33 33 33 33 32 33 32 31 31 30 29
36 37 39 41 43 45 46 47 48 48 48 48 47 45 43 42 40 39 37 36 36 37 38 40 41 42 42 43 43 42 37 35 37 36 36 35 35 35 35 34 33 32 32
37 39 41 44 45 46 47 48 48 48 48 49 48 46 44 42 39 38 36 34 34 36 38 40 42 42 42 42 43 43 41 37 38 38 37 37 37 37 37 36 34 33 33
41 43 44 45 45 46 46 47 47 47 48 48 46 43 41 39 38 36 33 33 34 36 38 39 41 42 41 40 41 42 42 39 37 35 37 37 37 37 37 35 33 33 33
48 50 51 49 47 45 44 44 44 45 45 45 42 39 38 36 34 33 33 34 36 36 37 39 41 42 42 41 40 40 39 37 35 33 32 34 35 36 36 35 35 35 34
54 55 55 54 54 52 48 43 43 43 42 40 36 34 34 33 33 33 34 36 37 37 38 40 41 41 41 39 37 36 34 33 31 31 31 32 34 36 37 37 37 37 36

GEFSSE_500_meanwind_018.txt.gz
Wind_Speed
18 18 16 14 12 11 10 10 10 10 9 9 9 9 10 11 12 13 13 13 13 12 11 9 8 7 6 6 5 5 5 5 5 5 5 5 4 4 3 1 1 2 2
16 15 13 10 8 6 6 7 7 7 7 6 6 7 7 8 9 10 11 11 11 11 9 8 6 5 5 4 4 4 3 3 3 3 3 4 4 4 3 2 1 3 4
12 11 9 7 5 4 3 4 4 4 4 3 4 5 6 7 7 8 9 9 10 10 9 8 6 4 3 2 2 3 3 3 2 2 2 3 4 4 4 2 0 2 4
8 7 6 5 4 3 3 2 2 2 1 1 3 5 6 7 7 7 8 9 9 9 9 8 7 5 3 3 3 3 3 3 3 3 2 2 2 3 4 3 2 0 2
6 5 4 3 2 2 2 2 2 2 2 2 3 5 6 7 8 8 9 9 10 10 10 10 9 7 6 5 4 5 4 4 4 4 3 3 2 1 2 2 2 1 0
5 4 3 2 1 2 2 4 4 4 4 3 3 4 5 6 7 8 9 9 10 10 10 10 11 10 8 7 6 6 6 6 5 5 4 3 3 2 1 1 1 1 1
5 4 4 3 3 4 5 6 7 7 6 4 3 3 4 5 7 9 9 9 9 9 10 10 11 11 10 8 7 7 7 8 7 6 5 5 5 5 3 3 3 4 3
5 5 5 4 5 6 7 8 8 8 7 6 4 4 5 6 8 9 10 9 8 8 9 9 10 11 11 10 8 7 8 9 9 8 7 6 6 7 6 5 5 5 4
6 6 5 6 6 7 8 9 9 8 8 7 7 7 8 10 11 11 11 9 7 6 7 8 9 10 11 11 9 7 8 9 10 10 9 8 8 8 8 8 7 6 5
6 6 6 7 8 9 9 10 10 9 9 9 10 11 12 13 13 12 11 10 8 7 7 7 8 10 10 11 10 8 7 9 11 12 12 10 10 10 10 10 10 9 8
8 8 8 8 9 10 10 11 11 11 10 11 12 13 15 15 15 13 12 10 9 9 7 7 8 9 10 11 11 11 9 8 11 13 14 13 13 12 12 12 12 11 11
9 9 9 9 10 10 11 12 12 13 13 13 13 14 15 16 15 14 13 11 11 11 10 8 7 8 9 10 11 12 11 9 9 11 14 15 15 15 14 15 15 13 12
9 10 10 10 10 11 12 12 13 14 14 14 14 15 16 16 16 15 14 13 13 14 14 12 10 9 9 10 11 12 13 12 11 11 13 15 17 17 17 16 16 16 15
11 12 12 13 13 14 15 15 16 16 16 16 17 17 18 18 18 18 17 17 16 17 16 16 14 12 12 11 11 11 12 13 14 14 14 15 17 19 19 18 17 17 17
16 16 16 17 18 19 19 21 21 21 21 20 20 20 21 21 22 22 22 21 20 20 19 19 18 16 15 15 14 13 13 14 15 16 17 17 18 20 21 21 20 19 19
22 22 22 22 23 24 24 25 25 26 25 24 24 24 24 24 25 25 25 25 24 23 23 22 21 21 19 18 18 18 17 17 17 17 18 19 20 21 22 23 23 23 21
28 28 28 28 29 29 30 30 31 31 31 30 30 29 29 29 29 29 28 27 27 25 25 24 24 24 23 22 22 22 22 22 22 21 21 21 21 22 23 24 25 25 25
33 33 33 33 34 35 36 36 36 36 36 36 36 36 36 36 36 36 35 33 31 29 28 27 27 27 27 27 27 26 26 27 26 25 24 24 24 24 24 25 27 27 27
37 37 37 38 38 40 41 41 41 41 40 40 41 41 41 42 42 42 42 41 38 35 33 30 30 30 31 31 31 31 30 30 30 30 29 28 27 27 27 27 28 29 30
41 41 41 42 42 44 45 45 45 44 44 44 45 46 47 48 47 47 47 46 44 41 37 35 34 34 34 34 34 33 32 32 32 32 32 32 31 31 31 30 30 31 31
43 43 44 44 45 46 47 47 48 47 47 48 49 50 50 51 52 52 52 51 49 45 40 38 37 36 36 36 36 34 33 33 33 33 34 34 34 33 33 33 33 33 33
42 43 44 44 46 48 49 50 51 51 50 50 50 51 53 54 56 57 56 54 52 48 44 40 40 39 38 37 36 35 33 34 35 34 35 35 35 35 35 35 34 34 35
42 43 45 47 48 49 50 51 51 52 51 51 53 54 54 54 55 57 57 56 54 49 45 43 41 40 38 37 36 35 34 34 35 35 35 37 36 36 36 36 36 35 36
44 45 46 47 48 49 51 52 52 53 54 54 56 57 55 54 54 55 53 53 53 49 45 42 39 37 36 35 35 35 36 36 35 33 33 35 36 35 35 35 36 37 37
45 46 47 48 50 51 53 55 56 57 58 59 59 59 57 55 54 49 46 46 44 44 41 38 36 35 34 34 34 35 36 36 35 32 29 31 33 33 34 34 35 36 36
44 45 47 49 51 53 55 57 59 60 61 62 62 61 58 56 52 47 43 39 38 38 36 34 34 34 33 34 35 35 35 34 32 30 27 27 30 31 32 33 33 34 35

GEFSSE_500_meanwind_024.txt.gz
Wind_Speed
9 8 7 5 4 2 1 2 4 6 7 9 11 12 11 11 10 10 11 11 11 11 10 10 9 9 9 10 10 10 9 9 10 10 10 10 9 8 6 4 2 2 2
8 7 5 3 1 1 2 4 5 7 8 9 11 12 11 11 10 10 11 12 12 12 12 11 10 9 8 8 9 9 9 8 8 8 9 9 9 8 6 4 3 2 2
7 5 3 1 2 3 4 5 6 7 8 9 10 10 10 10 10 10 11 12 13 13 13 12 12 10 9 8 8 9 9 9 8 7 7 8 8 8 7 5 3 2 3
6 5 2 1 2 3 4 4 6 7 8 9 9 9 8 8 9 11 11 12 12 12 12 12 12 12 10 9 9 9 9 9 8 7 6 7 7 7 6 6 5 3 3
6 5 3 2 2 3 3 4 5 7 8 9 8 8 7 7 8 10 11 11 11 11 11 11 11 12 11 10 9 9 9 9 9 8 7 5 6 6 6 6 6 5 4
6 5 4 4 3 3 3 4 5 7 8 9 8 8 8 8 9 10 11 11 11 10 10 10 11 12 12 11 10 9 9 8 8 8 8 7 6 7 6 6 6 7 7
8 7 6 7 6 6 5 5 6 7 8 9 9 9 10 10 11 12 13 13 12 10 9 8 9 11 12 12 11 10 9 9 8 8 8 7 7 8 7 7 7 8 9
11 11 10 10 10 10 9 8 8 9 9 10 10 11 12 13 15 16 16 15 13 12 9 8 8 9 10 11 12 12 11 10 9 9 8 8 8 8 8 8 8 9 10
13 14 12 12 12 12 11 11 10 10 11 11 12 13 14 15 17 18 18 17 15 13 12 10 9 8 9 10 11 12 12 11 10 9 9 10 10 10 10 10 9 9 9
13 14 14 14 14 14 13 13 12 12 12 13 13 14 16 17 17 18 18 17 16 15 14 12 11 9 8 9 9 10 11 12 12 11 10 10 12 11 12 12 11 11 11
13 13 14 14 16 16 15 14 14 13 14 14 15 16 17 17 17 18 18 18 17 17 16 15 14 12 11 9 9 10 11 11 12 11 11 11 12 12 13 13 13 13 13
13 14 14 15 16 17 17 16 15 15 15 16 17 18 18 18 18 19 19 18 18 17 17 18 17 16 14 12 11 11 11 11 11 11 11 11 12 13 13 14 14 14 15
14 14 15 16 18 18 18 18 18 18 18 18 19 20 20 20 21 20 21 21 20 20 19 20 20 20 19 17 15 14 13 13 12 12 12 13 12 13 14 14 15 16 16
18 18 18 19 20 21 22 22 22 22 22 23 23 24 24 24 24 24 24 24 23 23 23 23 22 22 23 22 20 18 17 16 15 14 13 14 14 14 15 15 15 16 17
23 23 23 23 24 25 25 26 26 27 27 27 27 28 29 29 28 28 28 28 27 27 26 26 26 26 26 25 25 24 23 21 20 19 17 17 18 17 17 17 17 17 17
28 28 28 28 28 28 29 30 30 31 31 31 32 32 33 34 34 33 32 32 32 31 31 30 30 30 29 29 28 28 27 26 24 23 23 22 22 21 21 20 20 19 19
33 32 32 32 32 32 33 34 34 35 36 36 36 36 36 37 38 38 37 37 37 36 35 35 35 35 34 33 32 32 31 30 29 28 27 27 26 25 25 24 23 23 22
38 37 36 37 37 37 38 38 38 39 40 40 40 40 41 41 42 42 41 41 41 41 41 41 40 41 41 40 38 36 36 35 33 32 31 30 30 28 27 27 27 26 26
42 42 42 42 43 42 43 43 42 41 42 43 43 44 45 44 44 44 44 44 44 44 44 45 45 46 46 45 43 40 39 38 36 34 33 33 32 31 30 28 28 29 29
46 45 45 45 46 46 45 44 43 43 43 45 46 46 47 47 46 46 46 47 47 47 47 47 48 49 49 48 46 44 42 40 39 37 35 34 34 33 31 30 29 29 30
45 45 44 45 46 46 44 43 42 43 44 45 46 46 47 48 49 49 49 48 48 48 48 48 49 50 51 51 51 48 44 42 40 38 36 35 36 35 33 32 31 30 29
40 40 40 40 41 42 42 42 42 43 44 46 47 47 48 50 51 52 49 48 49 48 48 48 50 51 51 51 50 46 42 41 41 38 37 35 35 35 35 34 32 31 29
39 39 40 40 41 42 43 43 44 45 46 47 49 50 50 52 53 52 50 50 50 50 50 50 50 51 50 48 47 44 43 42 41 39 39 37 35 35 35 35 33 31 30
41 42 43 44 45 46 47 48 49 49 50 50 51 52 53 54 54 53 53 53 53 53 52 51 50 50 48 46 45 44 42 41 40 39 38 38 35 35 35 33 31 29 28
40 41 43 44 45 47 48 49 50 51 51 51 52 53 54 55 55 56 55 55 54 53 52 51 49 48 46 43 41 42 42 41 40 39 36 36 35 34 33 31 30 27 26
37 37 38 39 40 41 43 45 46 47 49 50 51 52 53 54 54 55 55 54 54 52 51 50 48 45 43 40 39 39 40 41 40 39 35 34 34 33 32 29 28 27 25

GEFSSE_500_meanwind_030.txt.gz
Wind_Speed
7 7 8 8 9 9 9 10 11 11 13 14 14 14 13 14 15 15 16 17 18 17 17 16 15 14 13 11 10 10 10 10 10 10 10 11 10 8 7 5 4 4 5
7 6 6 6 7 8 8 8 9 10 11 12 12 12 12 12 13 14 16 17 17 17 16 16 15 14 13 12 10 9 9 9 8 9 9 10 10 9 8 6 4 3 2
4 4 4 5 6 6 7 7 7 8 9 10 10 10 10 10 12 13 15 16 17 16 16 15 15 14 13 12 10 9 8 8 7 7 8 8 8 8 8 7 6 4 3
4 4 4 5 5 5 6 6 6 6 7 8 9 9 9 9 11 12 14 15 16 16 15 15 15 15 15 14 12 10 8 7 6 6 6 6 5 5 5 6 5 5 4
5 6 6 7 6 6 6 6 6 6 7 7 7 8 8 9 10 12 14 15 16 15 15 14 14 14 15 15 14 12 10 8 6 6 6 6 5 4 4 4 4 4 4
7 8 8 9 8 8 8 8 8 9 9 9 9 9 9 10 11 13 15 16 16 15 14 13 13 13 14 15 15 14 12 9 7 6 6 7 6 6 5 4 3 3 4
8 9 10 10 11 11 11 11 11 12 12 12 12 11 11 12 13 14 16 16 16 15 14 13 12 12 12 13 13 14 13 12 9 7 6 7 7 6 6 5 5 5 4
9 10 11 12 12 13 13 14 14 15 15 15 14 14 13 13 14 15 16 16 16 15 14 13 12 12 11 12 12 12 13 13 12 10 8 8 8 8 7 7 7 6 5
10 11 12 12 12 13 14 14 15 16 17 17 17 16 15 15 16 16 16 16 16 15 14 13 13 12 12 12 12 12 12 12 12 12 11 10 9 9 9 9 9 8 7
11 12 12 11 12 12 13 14 15 17 18 18 18 17 17 17 17 17 17 17 16 16 14 14 13 13 13 13 13 13 13 12 12 13 13 12 11 10 10 10 11 10 10
12 12 11 11 11 11 12 13 15 16 17 18 18 18 17 17 18 18 18 18 17 17 16 15 14 14 14 14 15 16 15 14 14 14 14 14 13 12 11 11 12 12 12
13 13 13 13 13 13 14 14 15 16 17 18 18 18 18 19 19 20 20 19 19 18 18 17 16 15 15 15 16 17 17 17 17 17 17 17 16 15 14 13 13 14 14
15 16 17 17 17 17 17 18 17 18 18 18 19 19 20 21 21 22 22 22 21 21 20 19 18 17 17 17 17 18 18 19 20 19 20 20 19 19 18 17 16 15 15
19 20 21 23 23 22 22 23 23 22 22 22 22 23 23 24 24 24 25 25 25 24 23 22 21 21 20 20 19 20 20 21 22 23 23 23 23 22 22 22 20 18 18
23 23 24 26 28 28 27 27 28 27 26 26 26 26 27 27 28 28 27 27 28 28 27 26 25 24 24 23 23 23 23 23 24 25 27 28 27 26 26 26 25 23 21
27 27 27 28 30 32 32 31 30 30 30 29 29 29 30 31 32 32 31 31 31 31 30 29 28 27 26 26 27 27 27 27 27 28 29 31 32 31 30 30 29 27 25
30 32 33 33 34 35 35 35 34 33 33 32 32 33 33 34 35 36 36 35 35 34 33 32 31 30 30 29 30 30 29 30 30 31 32 33 34 35 35 33 32 31 29
33 34 36 35 36 36 37 38 38 37 36 35 36 36 36 37 37 37 38 39 39 38 36 35 34 34 33 32 32 32 31 32 32 33 34 35 36 37 37 37 35 33 32
35 34 35 35 36 35 36 37 38 38 37 37 37 38 38 38 38 39 39 40 40 39 39 38 37 36 36 35 34 33 32 32 34 35 36 37 37 37 38 37 36 35 33
34 34 34 34 33 34 33 33 34 35 35 36 37 38 38 38 39 40 40 40 39 38 39 39 38 38 37 37 35 33 33 33 35 36 37 38 37 37 37 37 37 36 34
35 34 35 35 36 37 37 35 34 34 35 36 37 39 40 39 39 40 40 40 39 39 41 39 38 38 37 37 36 35 35 35 36 37 39 39 37 36 35 35 36 35 33
35 37 38 38 39 39 37 36 36 36 37 38 39 40 41 41 41 42 42 41 41 41 41 40 39 37 35 35 36 37 35 35 36 38 39 38 35 33 33 33 34 34 33
36 39 40 40 40 40 39 39 40 40 39 40 40 41 42 42 43 44 44 44 44 44 43 42 40 37 37 36 37 38 37 35 35 36 38 36 33 32 32 32 33 33 31
35 37 38 38 39 39 39 39 40 39 39 39 39 38 39 40 40 41 41 41 42 42 41 41 40 40 39 38 38 39 39 38 37 35 35 36 34 32 32 31 33 32 31
33 35 37 38 39 39 39 39 39 39 39 38 37 36 35 35 36 37 38 38 39 40 41 41 42 42 41 41 41 41 41 41 39 37 35 35 33 32 33 33 33 32 31
32 34 35 37 38 39 40 41 41 41 40 39 38 37 37 36 37 38 39 40 41 42 43 44 44 44 44 44 43 43 43 42 41 39 35 34 32 33 33 34 33 32 31

GEFSSE_500_meanwind_036.txt.gz
Wind_Speed
8 9 9 10 11 11 12 13 13 14 14 15 15 15 15 16 17 18 19 20 20 20 19 19 19 18 15 13 10 9 8 9 9 9 9 8 6 5 4 4 4 4 5
7 9 9 10 10 11 11 12 12 12 13 13 13 12 13 14 15 16 18 19 19 19 18 18 18 17 16 14 11 9 7 7 7 8 7 7 6 5 4 3 3 3 3
8 9 9 10 10 10 11 11 11 11 12 12 11 11 11 11 12 14 16 17 17 17 16 15 15 15 15 14 12 9 7 7 6 6 6 6 5 5 4 3 3 3 3
7 8 8 9 10 10 11 11 11 11 11 12 11 10 10 10 11 12 14 15 15 15 14 13 12 12 13 13 13 11 8 7 6 6 6 5 5 4 4 3 3 2 2
7 7 8 8 9 10 10 10 10 11 11 11 11 10 9 10 10 11 12 13 13 13 12 11 10 9 10 11 11 11 10 9 7 7 6 5 5 5 4 3 3 3 2
8 8 8 9 9 9 10 9 10 10 10 10 10 10 10 10 10 11 11 12 12 12 11 10 8 7 7 7 8 9 9 9 9 8 7 6 6 5 5 4 4 4 4
10 10 10 10 10 10 9 9 9 9 10 10 10 10 10 10 10 10 10 11 11 11 11 10 8 7 6 5 5 6 7 7 8 9 8 7 6 6 6 5 5 5 5
11 11 11 11 11 10 10 9 9 9 10 10 11 10 10 10 10 10 10 10 10 10 10 10 9 8 7 7 6 5 5 5 6 7 7 7 7 7 6 6 6 5 5
11 11 12 12 12 11 11 10 10 10 10 11 11 11 11 10 10 10 9 9 10 10 10 10 10 10 9 9 8 8 7 6 6 6 6 6 6 7 7 6 6 6 6
11 11 12 12 12 12 12 12 12 12 12 12 12 12 12 12 11 11 10 10 10 10 11 11 11 11 11 11 11 10 10 10 9 8 8 7 7 7 7 6 6 6 7
12 12 12 12 13 14 15 15 15 15 15 15 14 14 14 14 14 14 13 13 13 13 13 13 13 13 13 13 13 13 13 13 13 12 12 11 10 9 9 8 8 7 8
15 15 16 16 17 17 18 18 18 18 18 18 18 17 17 17 17 17 17 17 17 17 17 17 17 16 16 16 16 16 16 16 16 16 15 15 14 14 13 12 12 11 10
19 19 20 20 21 22 22 23 23 23 22 22 22 21 21 21 21 21 22 22 22 22 22 22 21 21 20 20 19 19 19 19 19 19 19 19 19 18 17 17 16 16 15
21 22 22 23 25 25 26 27 28 28 28 28 27 26 26 25 25 26 26 26 27 27 27 27 27 26 25 24 23 23 23 23 23 22 22 22 23 22 21 21 20 20 19
22 23 25 27 28 29 30 30 31 32 33 34 33 31 31 30 30 30 30 30 31 31 31 32 32 31 30 29 28 28 28 28 27 26 25 25 26 26 26 25 24 23 23
24 25 27 28 29 30 31 32 31 33 34 35 36 36 36 35 34 34 34 34 34 35 36 36 36 36 35 34 33 32 32 31 30 29 28 28 28 28 28 28 28 28 28
26 27 27 28 29 29 31 31 31 33 35 34 36 38 38 38 38 38 38 37 38 39 39 40 40 41 41 39 38 37 36 35 34 32 31 30 31 31 31 31 31 31 31
27 28 28 28 28 30 31 30 31 33 34 34 35 37 38 39 40 40 41 41 42 42 42 43 44 44 44 43 43 42 40 37 36 36 34 33 33 33 33 33 33 33 34
29 29 29 29 29 31 31 31 31 33 34 34 35 37 39 41 41 41 42 42 42 42 43 43 45 44 44 43 42 41 41 41 38 37 36 36 35 35 35 34 35 34 35
30 30 30 30 30 31 31 32 33 34 35 34 35 36 36 37 39 40 41 41 42 43 43 44 43 44 42 40 39 37 36 37 36 35 37 37 37 36 35 35 35 35 36
30 30 31 32 31 31 32 32 33 33 34 34 35 36 37 37 39 40 41 42 43 43 43 44 44 43 42 41 39 37 35 35 33 34 35 36 36 35 36 36 36 35 35
30 31 32 32 33 33 33 34 34 34 34 35 35 36 37 37 38 40 41 42 42 42 42 43 43 43 42 41 39 36 33 32 30 30 32 34 35 35 34 34 34 34 34
29 30 32 33 34 34 35 36 36 36 35 35 35 36 37 38 38 39 40 40 41 41 40 40 40 40 38 36 35 34 31 28 28 28 30 31 32 33 32 32 32 32 32
29 31 32 33 33 34 34 33 33 34 34 35 35 36 37 38 38 38 39 39 40 40 39 37 36 35 34 32 32 32 31 29 28 28 29 31 31 31 31 31 31 31 31
29 31 31 31 31 30 29 29 29 30 32 34 35 36 37 38 38 38 39 39 39 39 38 37 36 35 33 32 32 33 33 32 31 30 30 31 32 32 30 31 31 32 30
29 30 30 30 29 27 27 28 28 30 32 33 34 35 37 37 38 38 39 39 40 40 40 40 39 38 37 36 35 35 35 35 34 33 33 34 34 33 32 32 31 31 30

GEFSSE_500_meanwind_042.txt.gz
Wind_Speed
8 9 9 9 9 8 8 9 9 10 10 10 10 10 10 11 12 13 13 13 12 11 11 11 10 10 9 7 6 6 6 6 6 6 6 6 5 4 4 4 4 5 5
7 7 8 8 7 7 7 7 7 8 8 8 8 8 8 9 10 10 11 10 10 9 8 8 8 9 8 8 6 5 5 4 4 4 5 5 5 4 3 2 2 3 3
5 6 6 6 5 5 5 5 6 6 6 6 6 6 7 7 8 8 8 8 8 7 6 6 6 6 7 7 7 5 4 3 3 3 3 3 3 3 2 2 2 2 2
4 4 5 4 4 4 4 5 5 6 6 6 6 6 5 6 6 6 6 6 6 6 5 4 4 4 4 5 6 6 4 3 2 2 2 1 1 1 2 2 2 3 3
3 3 4 4 4 5 5 6 6 6 6 6 6 6 5 5 5 5 5 5 5 5 5 4 3 2 2 3 3 4 4 3 2 1 1 1 1 2 2 3 4 4 4
3 3 4 5 5 6 6 7 7 7 7 7 7 6 6 5 5 5 5 4 4 5 5 5 4 3 3 3 2 2 2 2 1 1 1 1 2 2 3 4 5 6 5
3 4 4 5 6 6 7 7 7 7 7 7 7 7 7 7 7 7 6 6 5 5 5 5 5 5 5 5 5 4 4 3 2 1 2 2 3 3 4 5 5 6 6
4 5 5 6 6 7 8 8 8 8 9 9 9 9 9 9 9 9 9 8 8 7 7 7 7 7 7 7 8 8 7 7 6 5 4 4 4 4 4 5 6 6 5
6 7 7 8 8 8 9 9 10 10 11 11 12 12 12 12 12 12 12 11 11 10 10 10 10 10 10 10 10 10 10 10 10 9 8 8 7 7 6 5 6 6 6
9 10 11 12 12 12 12 13 13 13 14 15 15 15 16 16 16 16 16 15 15 14 14 14 13 13 13 13 13 13 13 14 14 13 13 12 11 10 9 8 7 7 7
13 14 15 16 17 18 18 18 18 18 18 19 19 20 20 20 20 20 20 20 19 19 18 18 18 17 17 17 17 16 16 16 17 17 16 16 15 14 12 11 10 9 9
17 18 19 20 21 22 22 22 22 22 23 23 24 24 24 25 25 25 24 24 24 23 23 23 22 22 21 21 21 21 20 20 20 20 19 19 18 18 16 15 14 13 12
20 21 22 23 24 24 24 25 25 25 26 26 27 28 28 29 29 29 29 29 29 28 28 27 27 26 26 25 25 25 25 24 24 24 23 22 22 21 20 19 18 17 16
23 23 24 24 25 25 26 26 26 26 27 28 29 30 30 31 32 32 33 33 33 33 33 33 32 31 31 30 30 30 30 29 29 28 27 26 26 25 24 23 22 21 21
26 26 26 25 25 25 26 26 25 26 27 28 29 29 30 31 32 34 35 35 36 37 38 38 37 37 36 35 35 35 35 35 34 35 33 32 30 29 28 27 26 25 24
29 28 28 27 26 26 26 25 24 25 26 27 27 28 28 29 30 31 33 35 37 39 40 41 41 41 41 40 40 40 39 39 39 40 39 38 36 34 32 30 29 28 27
30 30 29 27 27 27 27 26 25 25 25 26 26 27 27 27 28 29 31 32 35 38 40 42 43 44 44 44 43 42 42 41 42 41 42 41 40 39 37 34 33 31 30
31 30 29 28 28 28 27 26 25 25 25 25 25 25 25 26 26 27 28 30 33 34 37 39 42 44 44 44 43 43 41 41 40 39 39 39 41 41 39 37 37 36 34
31 31 31 30 30 28 27 26 25 24 24 24 23 23 23 23 24 25 26 28 31 33 34 36 37 40 42 43 43 41 41 41 39 37 37 38 38 39 39 39 38 38 38
32 32 32 32 30 29 27 26 24 24 23 22 20 20 21 21 21 23 24 27 29 32 33 35 36 38 39 40 41 40 39 39 38 38 37 36 37 38 39 40 39 39 39
33 33 34 33 31 30 28 25 23 21 19 18 17 17 18 19 21 22 24 26 28 30 32 34 36 37 38 39 39 38 38 38 38 36 36 35 35 36 38 40 41 40 40
34 35 35 34 32 30 27 25 22 19 17 16 16 17 18 20 21 23 24 26 28 30 31 34 36 37 37 38 38 38 37 36 34 35 34 33 32 33 35 38 39 39 39
35 36 35 33 32 30 27 25 22 20 19 19 19 20 21 21 22 23 25 27 28 30 31 32 35 36 37 37 38 38 36 33 33 31 31 29 29 29 30 32 34 35 37
35 35 34 33 33 30 28 26 24 23 23 22 23 24 24 24 24 25 26 27 29 29 30 31 33 35 36 37 37 37 35 33 32 30 28 28 28 27 28 29 30 31 33
33 34 34 33 32 31 29 28 27 27 27 26 27 27 27 26 26 26 26 27 29 30 30 30 32 33 35 36 37 37 36 35 33 31 29 29 29 28 27 27 28 29 29
33 33 35 34 33 32 31 31 31 31 31 31 30 30 29 28 27 27 27 29 30 30 30 31 31 32 33 35 36 37 38 36 35 34 33 32 31 30 29 28 29 29 29

GEFSSE_500_meanwind_048.txt.gz
Wind_Speed
5 5 5 5 5 5 5 6 7 8 8 8 8 9 9 9 9 10 10 10 10 10 9 10 10 10 10 9 8 8 8 8 7 7 7 6 5 5 5 5 5 5 5
3 4 3 3 4 4 4 5 6 7 8 8 8 8 8 9 9 9 9 10 9 9 9 8 8 8 8 8 8 7 6 6 6 6 6 5 5 4 4 3 3 3 3
1 2 1 2 2 3 4 5 6 7 8 8 8 8 8 8 9 9 9 9 9 9 8 8 8 7 7 7 7 6 6 5 5 5 5 4 4 3 3 2 2 1 1
1 1 1 2 3 4 5 6 7 8 8 8 9 9 9 9 9 9 9 9 8 8 8 8 7 7 7 6 6 6 5 5 4 4 4 4 3 3 3 2 2 1 1
3 3 4 4 5 5 6 7 8 8 9 9 9 9 9 10 10 10 10 10 9 9 9 8 8 7 7 6 6 6 5 5 5 4 4 4 3 3 3 3 3 3 3
4 5 6 7 7 7 7 8 9 10 10 11 11 11 11 11 11 11 11 11 11 10 10 10 9 9 8 8 8 7 7 6 6 5 5 5 5 4 4 4 4 5 6
5 7 8 9 9 9 9 10 10 11 12 12 13 13 13 13 13 13 13 12 13 12 12 11 11 10 10 9 10 10 9 9 8 7 7 6 6 6 6 6 6 6 7
7 8 9 10 10 11 11 11 12 13 14 15 15 16 16 16 15 15 15 14 14 14 14 14 13 12 12 12 11 12 12 12 11 10 9 8 8 7 7 7 7 8 8
9 10 10 11 12 12 13 14 15 16 17 17 18 19 19 18 18 18 18 17 17 17 16 16 15 15 14 14 14 14 14 14 14 13 12 11 11 10 9 9 9 9 9
11 12 13 13 14 15 15 16 17 18 19 20 21 21 21 21 21 21 20 20 20 20 19 19 19 18 18 17 17 16 17 17 16 16 15 14 14 13 12 12 11 10 9
14 14 15 15 16 16 17 18 19 20 21 21 22 22 23 23 23 23 24 24 23 22 22 22 22 22 22 21 20 19 20 20 19 18 18 17 17 16 16 15 14 12 12
16 17 17 17 18 19 19 20 21 21 22 22 22 23 24 25 25 26 26 27 26 25 25 26 26 26 26 25 24 23 23 23 23 22 21 20 20 19 19 18 17 16 15
18 19 20 21 21 22 22 22 22 22 22 23 23 24 25 26 27 27 27 27 28 28 28 28 29 29 30 29 28 27 27 27 27 26 24 24 24 23 23 22 21 19 18
21 22 23 24 25 25 25 24 24 24 24 24 24 24 25 26 27 28 28 28 28 28 29 29 30 31 32 32 31 31 30 31 31 31 30 28 28 28 27 26 25 24 22
24 26 26 27 27 27 27 26 26 25 25 25 25 25 26 27 27 27 27 28 28 28 28 29 30 31 32 34 34 35 35 34 34 35 34 32 32 32 32 31 30 28 27
28 29 29 29 29 28 28 27 27 26 25 25 26 26 26 26 27 27 27 27 26 26 26 26 27 29 30 32 34 35 35 36 36 35 36 36 35 34 34 34 34 32 31
32 32 32 32 30 29 29 28 28 27 26 26 26 26 26 26 26 26 25 24 24 24 24 24 25 26 28 30 31 32 33 34 35 35 37 38 38 36 35 35 35 34 34
35 35 34 34 32 30 30 29 28 28 27 26 26 26 25 25 25 24 23 22 22 21 21 22 23 25 26 28 29 30 31 32 32 33 34 35 36 36 35 35 35 35 35
36 36 35 35 33 31 30 30 29 28 28 27 27 26 25 24 23 23 22 20 20 20 20 21 22 23 25 27 28 29 30 29 31 31 31 32 33 35 35 34 34 34 33
38 36 35 35 34 33 32 31 30 29 28 28 26 25 25 24 22 21 20 19 19 19 20 21 21 23 24 25 26 27 28 29 29 29 29 29 29 29 30 31 31 33 34
38 36 37 35 35 35 34 33 32 30 29 27 25 25 24 23 22 20 20 19 19 19 20 21 21 23 24 26 26 26 27 27 28 28 28 28 28 27 27 27 29 30 32
37 37 37 36 37 37 37 34 33 32 30 29 26 25 25 24 22 21 21 21 21 21 21 22 22 23 24 26 26 26 26 26 27 27 27 27 27 27 26 26 26 27 28
37 38 39 37 37 38 37 35 34 33 32 29 27 26 26 25 24 24 23 23 23 23 23 23 23 24 24 26 27 27 27 26 26 26 27 26 26 26 25 24 24 25 26
36 37 36 35 36 36 36 36 34 34 32 30 28 27 26 26 26 26 26 26 26 26 26 25 25 25 26 26 27 28 28 28 27 25 26 26 25 25 25 24 24 24 24
36 36 37 35 36 37 37 37 35 35 33 31 29 28 28 28 29 29 29 30 30 30 29 28 28 27 27 27 28 28 29 29 28 26 24 26 26 25 25 25 24 24 24
34 34 36 37 36 37 37 38 36 36 35 33 31 30 30 31 31 32 32 33 33 32 32 31 30 30 29 28 28 28 29 29 28 27 24 24 26 27 27 26 26 26 25

GEFSSE_500_meanwind_054.txt.gz
Wind_Speed
3 3 4 4 4 5 5 6 6 7 8 8 9 10 11 11 12 12 12 12 12 12 12 11 10 10 9 8 8 7 7 8 8 7 7 7 6 6 6 7 7 7 8
2 1 1 2 2 3 3 4 4 5 6 7 8 9 9 10 10 11 11 11 11 11 11 11 10 9 8 8 7 7 6 6 6 6 6 6 6 5 5 5 5 5 6
2 1 1 1 2 2 3 4 4 5 5 6 7 8 8 9 9 10 10 10 10 10 10 10 10 9 8 7 7 6 6 6 5 5 5 5 5 5 4 4 4 4 4
3 3 3 3 3 4 4 4 5 5 5 6 7 7 8 9 9 9 9 10 10 10 10 10 10 9 8 8 7 6 5 5 5 4 4 3 3 3 3 3 3 3 3
5 4 4 4 5 5 5 5 5 6 6 6 7 7 8 9 9 9 9 9 9 10 10 10 10 9 9 8 7 6 6 5 5 4 3 3 2 2 2 2 2 2 2
6 5 5 6 6 6 6 6 6 6 7 7 8 9 9 9 10 10 10 10 10 10 10 10 10 10 9 9 8 7 6 5 5 5 4 3 2 2 1 1 1 1 1
6 6 6 7 7 7 8 8 8 9 9 10 10 11 11 12 12 12 11 11 11 11 11 11 11 11 11 10 9 8 8 7 6 6 6 5 4 3 3 2 2 2 2
7 8 8 8 8 9 10 10 11 12 12 12 13 14 14 14 14 14 13 13 13 13 13 13 13 13 13 12 12 11 11 10 9 8 8 7 6 6 5 5 4 4 3
8 9 9 10 11 11 12 13 13 14 14 15 15 16 16 16 16 16 16 16 16 15 15 15 16 16 16 15 15 14 14 13 12 11 10 10 9 9 8 8 7 6 5
9 10 11 11 12 13 14 14 15 15 16 17 17 18 18 18 18 18 18 18 18 18 18 18 18 19 19 19 19 18 17 16 16 15 14 13 12 12 11 10 10 9 8
11 12 12 13 13 14 15 16 16 17 17 18 18 19 19 19 20 20 20 20 20 20 20 20 20 21 21 22 22 21 21 21 20 19 18 17 16 15 14 14 13 13 12
13 13 14 15 15 16 16 17 18 18 18 19 19 20 20 20 21 21 21 22 22 22 22 22 22 23 23 23 23 23 23 24 24 23 22 21 20 19 18 17 16 16 15
17 17 17 17 18 19 19 19 19 19 20 20 21 21 21 21 22 22 22 23 23 23 23 23 23 23 23 23 24 24 25 24 25 25 25 24 24 23 22 20 19 19 18
19 20 20 20 21 21 22 21 21 21 21 21 21 22 22 22 22 22 23 23 23 23 23 23 22 21 21 22 23 23 24 24 25 26 27 27 27 26 26 24 23 22 22
23 22 22 23 23 23 24 24 23 23 22 21 21 22 22 23 23 23 23 23 23 23 22 21 20 19 19 20 20 21 21 23 24 26 27 28 29 29 28 28 27 26 26
26 26 26 28 27 26 26 26 25 24 23 22 22 22 23 23 23 24 23 23 22 22 21 19 19 18 18 18 18 18 19 20 22 23 24 26 27 29 29 30 30 29 29
30 30 29 31 31 30 30 28 27 25 24 24 24 23 23 24 24 23 22 22 21 20 19 17 17 16 15 16 17 17 18 18 20 21 22 23 25 27 28 29 30 30 31
34 33 33 35 35 34 31 30 28 27 25 24 25 25 24 25 24 23 22 21 20 19 18 17 17 15 15 15 16 16 16 17 18 18 19 21 23 25 26 27 29 29 31
36 35 36 38 37 34 31 31 28 26 26 26 26 27 25 25 24 23 22 21 20 19 18 17 16 15 15 14 14 15 15 15 16 17 18 19 20 22 23 24 26 28 30
35 36 36 33 33 31 32 30 27 26 26 27 28 27 25 24 24 24 24 22 21 20 18 17 16 16 15 14 14 14 15 15 16 17 18 18 19 20 21 22 24 26 28
38 36 34 34 34 32 30 28 26 26 27 28 27 26 25 25 25 24 24 23 22 21 20 19 18 18 17 16 16 15 16 16 16 17 18 19 19 20 21 22 23 25 26
37 37 34 33 30 27 25 24 26 27 27 27 27 26 27 27 25 25 24 24 23 22 22 21 20 20 20 19 18 17 17 18 17 18 18 19 20 20 21 22 23 25 25
36 33 32 30 28 27 25 27 27 26 26 28 27 26 26 26 26 26 26 25 24 24 24 23 22 22 22 22 20 19 19 19 19 20 19 19 20 20 21 22 23 24 25
32 33 32 30 28 30 29 27 26 27 27 28 27 27 27 27 26 25 26 26 26 26 26 25 25 24 24 24 23 22 21 20 20 21 21 21 20 20 21 21 22 23 24
33 32 32 31 30 31 30 29 28 28 29 29 29 29 29 28 27 27 27 27 27 28 28 28 28 27 26 26 25 25 24 23 22 21 22 22 21 20 20 21 22 22 22
34 34 34 34 34 33 33 33 33 33 33 33 32 32 31 30 30 29 28 28 29 30 30 31 30 30 29 28 28 27 26 25 24 23 22 23 23 22 21 21 21 22 22